Deering, AK

5:20 AM AKDT on July 21, 2017 (GMT -0800)
Deering (New)

Weather History for PADE - October, 2011

Change the Weather History Date:

Friday, October 7, 2011

  Actual Average (PAOT) Record (PAOT)
Temperature  
Mean Temperature 32 °F -  
Max Temperature 35 °F 35 °F 50 °F (1969)
Min Temperature 28 °F 26 °F 9 °F (1960)
Degree Days  
Heating Degree Days 32    
Moisture  
Dew Point 25 °F    
Average Humidity 73    
Maximum Humidity 82    
Minimum Humidity 67    
Precipitation  
Precipitation 0.00 in - - ()
Sea Level Pressure  
Sea Level Pressure 29.76 in    
Wind  
Wind Speed 9 mph (West)    
Max Wind Speed 13 mph    
Max Gust Speed -    
Visibility 10 miles    
Events      
Averages and records for this station are not official NWS values.
T = Trace of Precipitation, MM = Missing Value Source: NWS Daily Summary

Daily Weather History Graph

Daily Weather History Graph

Search for Another Location

Airport or City:

Trip Planner

Search our weather history database for the weather conditions in past years. The results will help you decide how hot, cold, wet, or windy it might be!

Date:

Astronomy

Oct. 07, 2011 Rise Set
Actual Time 9:21 AM AKDT 7:55 PM AKDT
Civil Twilight 8:29 AM AKDT 8:46 PM AKDT
Nautical Twilight 7:29 AM AKDT 9:45 PM AKDT
Astronomical Twilight 6:26 AM AKDT 10:48 PM AKDT
Moon 6:52 PM AKDT (10/7) 3:55 AM AKDT (10/7)
Length of Visible Light 12h 16m
Length of Day
10h 33m
Waxing Gibbous, 84% of the Moon is Illuminated
Oct 7
Waxing Gibbous
Oct 11
Full
Oct 19
Last Quarter
Oct 26
New
Nov 2
First Quarter

Hourly Weather History & Observations

Time (AKDT) Temp. Windchill Dew Point Humidity Pressure Visibility Wind Dir Wind Speed Gust Speed Precip Events Conditions
12:53 AM - - - N/A% 29.63 in 10.0 mi West 10.4 mph - N/A   Overcast
1:53 AM - - - N/A% 29.64 in 10.0 mi West 12.7 mph - N/A   Overcast
2:53 AM - - - N/A% 29.66 in 10.0 mi WSW 9.2 mph - N/A   Overcast
3:53 AM - - - N/A% 29.67 in 10.0 mi West 10.4 mph - N/A   Overcast
4:21 AM - - - N/A% 29.66 in 10.0 mi West 10.4 mph - N/A   Overcast
4:51 AM - - - N/A% 29.67 in 10.0 mi West 9.2 mph - N/A   Overcast
4:53 AM - - - N/A% 29.68 in 10.0 mi West 11.5 mph - N/A   Overcast
5:53 AM - - - N/A% 29.69 in 10.0 mi West 10.4 mph - N/A   Overcast
6:53 AM - - - N/A% 29.70 in 10.0 mi WSW 8.1 mph - N/A   Overcast
7:53 AM - - - N/A% 29.71 in 10.0 mi WSW 9.2 mph - N/A   Overcast
8:53 AM - - - N/A% 29.72 in 10.0 mi West 6.9 mph - N/A   Overcast
9:53 AM - - - N/A% 29.74 in 10.0 mi West 9.2 mph - N/A   Overcast
10:53 AM - - - N/A% 29.76 in 10.0 mi West 9.2 mph - N/A   Overcast
11:53 AM - - - N/A% 29.77 in 10.0 mi WNW 9.2 mph - N/A   Overcast
12:53 PM 33.1 °F 24.9 °F 26.1 °F 75% 29.78 in 10.0 mi WNW 10.4 mph - N/A   Overcast
1:53 PM 33.1 °F 24.9 °F 25.0 °F 72% 29.79 in 10.0 mi West 10.4 mph - N/A   Overcast
2:53 PM 34.0 °F 26.6 °F 25.0 °F 70% 29.81 in 10.0 mi West 9.2 mph - N/A   Overcast
3:07 PM 33.8 °F 26.4 °F 24.8 °F 70% 29.80 in 10.0 mi West 9.2 mph - N/A   Overcast
3:45 PM 33.8 °F 26.4 °F 24.8 °F 70% 29.80 in 10.0 mi WNW 9.2 mph - N/A   Overcast
3:53 PM 35.1 °F 28.6 °F 25.0 °F 67% 29.80 in 10.0 mi West 8.1 mph - N/A   Overcast
4:19 PM 33.8 °F 26.4 °F 24.8 °F 70% 29.80 in 10.0 mi West 9.2 mph - N/A   Mostly Cloudy
4:53 PM 35.1 °F 27.4 °F 25.0 °F 67% 29.81 in 10.0 mi West 10.4 mph - N/A   Overcast
5:53 PM 35.1 °F 29.3 °F 25.0 °F 67% 29.81 in 10.0 mi WNW 6.9 mph - N/A   Overcast
6:53 PM 35.1 °F 29.3 °F 25.0 °F 67% 29.82 in 10.0 mi West 6.9 mph - N/A   Overcast
7:53 PM 33.1 °F 26.9 °F 25.0 °F 72% 29.83 in 10.0 mi WSW 6.9 mph - N/A   Overcast
8:53 PM 32.0 °F 26.4 °F 25.0 °F 75% 29.84 in 10.0 mi SW 5.8 mph - N/A   Overcast
9:03 PM 32.0 °F 26.4 °F 24.8 °F 75% 29.83 in 10.0 mi SW 5.8 mph - N/A   Overcast
9:36 PM 32.0 °F 25.6 °F 24.8 °F 75% 29.84 in 10.0 mi SW 6.9 mph - N/A   Overcast
9:48 PM 32.0 °F 25.6 °F 24.8 °F 75% 29.84 in 10.0 mi SW 6.9 mph - N/A   Overcast
9:53 PM 30.9 °F 24.3 °F 25.0 °F 79% 29.85 in 10.0 mi SW 6.9 mph - N/A   Overcast
10:28 PM 30.2 °F 22.6 °F 24.8 °F 80% 29.85 in 10.0 mi SW 8.1 mph - N/A   Overcast
10:53 PM 28.9 °F 21.1 °F 24.1 °F 82% 29.86 in 10.0 mi SSW 8.1 mph - N/A   Overcast